Year,Month,Day,Hour,Minute,Value (Times are PST for temperature in C)
2019,06,02,00,00,17.60
2019,06,02,00,01,17.60
2019,06,02,00,02,17.60
2019,06,02,00,03,17.60
2019,06,02,00,04,17.60
2019,06,02,00,05,17.60
2019,06,02,00,06,17.60
2019,06,02,00,07,17.60
2019,06,02,00,08,17.60
2019,06,02,00,09,17.60
2019,06,02,00,10,17.60
2019,06,02,00,11,17.60
2019,06,02,00,12,17.50
2019,06,02,00,13,17.50
2019,06,02,00,14,17.50
2019,06,02,00,15,17.50
2019,06,02,00,16,17.50
2019,06,02,00,17,17.40
2019,06,02,00,18,17.40
2019,06,02,00,19,17.40
2019,06,02,00,20,17.40
2019,06,02,00,21,17.40
2019,06,02,00,22,17.40
2019,06,02,00,23,17.40
2019,06,02,00,24,17.30
2019,06,02,00,25,17.30
2019,06,02,00,26,17.30
2019,06,02,00,27,17.30
2019,06,02,00,28,17.20
2019,06,02,00,29,17.20
2019,06,02,00,30,17.20
2019,06,02,00,31,17.20
2019,06,02,00,32,17.20
2019,06,02,00,33,17.10
2019,06,02,00,34,17.10
2019,06,02,00,35,17.10
2019,06,02,00,36,17.00
2019,06,02,00,37,17.00
2019,06,02,00,38,17.00
2019,06,02,00,39,17.00
2019,06,02,00,40,16.90
2019,06,02,00,41,16.90
2019,06,02,00,42,16.90
2019,06,02,00,43,16.90
2019,06,02,00,44,16.90
2019,06,02,00,45,16.90
2019,06,02,00,46,16.90
2019,06,02,00,47,16.90
2019,06,02,00,48,16.90
2019,06,02,00,49,16.90
2019,06,02,00,50,16.90
2019,06,02,00,51,16.90
2019,06,02,00,52,16.90
2019,06,02,00,53,16.90
2019,06,02,00,54,16.90
2019,06,02,00,55,16.90
2019,06,02,00,56,16.90
2019,06,02,00,57,16.90
2019,06,02,00,58,16.90
2019,06,02,00,59,16.90
2019,06,02,01,00,16.90
2019,06,02,01,01,16.90
2019,06,02,01,02,16.90
2019,06,02,01,03,16.90
2019,06,02,01,04,16.90
2019,06,02,01,05,16.90
2019,06,02,01,06,16.90
2019,06,02,01,07,16.90
2019,06,02,01,08,16.90
2019,06,02,01,09,16.90
2019,06,02,01,10,16.90
2019,06,02,01,11,16.90
2019,06,02,01,12,16.90
2019,06,02,01,13,16.90
2019,06,02,01,14,16.90
2019,06,02,01,15,16.90
2019,06,02,01,16,16.90
2019,06,02,01,17,16.90
2019,06,02,01,18,16.90
2019,06,02,01,19,17.00
2019,06,02,01,20,16.90
2019,06,02,01,21,16.90
2019,06,02,01,22,16.90
2019,06,02,01,23,16.90
2019,06,02,01,24,16.90
2019,06,02,01,25,16.90
2019,06,02,01,26,16.90
2019,06,02,01,27,16.90
2019,06,02,01,28,16.90
2019,06,02,01,29,16.80
2019,06,02,01,30,16.80
2019,06,02,01,31,16.80
2019,06,02,01,32,16.80
2019,06,02,01,33,16.80
2019,06,02,01,34,16.80
2019,06,02,01,35,16.80
2019,06,02,01,36,16.80
2019,06,02,01,37,16.80
2019,06,02,01,38,16.80
2019,06,02,01,39,16.80
2019,06,02,01,40,16.80
2019,06,02,01,41,16.70
2019,06,02,01,42,16.70
2019,06,02,01,43,16.70
2019,06,02,01,44,16.70
2019,06,02,01,45,16.70
2019,06,02,01,46,16.70
2019,06,02,01,47,16.70
2019,06,02,01,48,16.70
2019,06,02,01,49,16.70
2019,06,02,01,50,16.60
2019,06,02,01,51,16.60
2019,06,02,01,52,16.60
2019,06,02,01,53,16.60
2019,06,02,01,54,16.60
2019,06,02,01,55,16.60
2019,06,02,01,56,16.60
2019,06,02,01,57,16.60
2019,06,02,01,58,16.50
2019,06,02,01,59,16.50
2019,06,02,02,00,16.50
2019,06,02,02,01,16.50
2019,06,02,02,02,16.50
2019,06,02,02,03,16.50
2019,06,02,02,04,16.50
2019,06,02,02,05,16.50
2019,06,02,02,06,16.50
2019,06,02,02,07,16.40
2019,06,02,02,08,16.40
2019,06,02,02,09,16.40
2019,06,02,02,10,16.40
2019,06,02,02,11,16.40
2019,06,02,02,12,16.40
2019,06,02,02,13,16.30
2019,06,02,02,14,16.30
2019,06,02,02,15,16.30
2019,06,02,02,16,16.30
2019,06,02,02,17,16.30
2019,06,02,02,18,16.30
2019,06,02,02,19,16.20
2019,06,02,02,20,16.20
2019,06,02,02,21,16.20
2019,06,02,02,22,16.20
2019,06,02,02,23,16.20
2019,06,02,02,24,16.20
2019,06,02,02,25,16.20
2019,06,02,02,26,16.20
2019,06,02,02,27,16.20
2019,06,02,02,28,16.20
2019,06,02,02,29,16.10
2019,06,02,02,30,16.10
2019,06,02,02,31,16.10
2019,06,02,02,32,16.10
2019,06,02,02,33,16.10
2019,06,02,02,34,16.10
2019,06,02,02,35,16.10
2019,06,02,02,36,16.10
2019,06,02,02,37,16.10
2019,06,02,02,38,16.00
2019,06,02,02,39,16.00
2019,06,02,02,40,16.00
2019,06,02,02,41,16.00
2019,06,02,02,42,16.00
2019,06,02,02,43,16.00
2019,06,02,02,44,15.90
2019,06,02,02,45,15.90
2019,06,02,02,46,15.90
2019,06,02,02,47,15.90
2019,06,02,02,48,15.90
2019,06,02,02,49,15.90
2019,06,02,02,50,15.90
2019,06,02,02,51,15.90
2019,06,02,02,52,15.90
2019,06,02,02,53,15.90
2019,06,02,02,54,15.90
2019,06,02,02,55,16.00
2019,06,02,02,56,16.00
2019,06,02,02,57,16.00
2019,06,02,02,58,16.00
2019,06,02,02,59,16.10
2019,06,02,03,00,16.10
2019,06,02,03,01,16.10
2019,06,02,03,02,16.10
2019,06,02,03,03,16.10
2019,06,02,03,04,16.00
2019,06,02,03,05,16.00
2019,06,02,03,06,16.00
2019,06,02,03,07,16.00
2019,06,02,03,08,15.90
2019,06,02,03,09,15.90
2019,06,02,03,10,15.90
2019,06,02,03,11,15.90
2019,06,02,03,12,15.90
2019,06,02,03,13,15.80
2019,06,02,03,14,15.80
2019,06,02,03,15,15.80
2019,06,02,03,16,15.80
2019,06,02,03,17,15.70
2019,06,02,03,18,15.70
2019,06,02,03,19,15.70
2019,06,02,03,20,15.70
2019,06,02,03,21,15.70
2019,06,02,03,22,15.60
2019,06,02,03,23,15.60
2019,06,02,03,24,15.60
2019,06,02,03,25,15.60
2019,06,02,03,26,15.60
2019,06,02,03,27,15.60
2019,06,02,03,28,15.60
2019,06,02,03,29,15.60
2019,06,02,03,30,15.60
2019,06,02,03,31,15.50
2019,06,02,03,32,15.50
2019,06,02,03,33,15.50
2019,06,02,03,34,15.50
2019,06,02,03,35,15.50
2019,06,02,03,36,15.50
2019,06,02,03,37,15.50
2019,06,02,03,38,15.40
2019,06,02,03,39,15.40
2019,06,02,03,40,15.40
2019,06,02,03,41,15.40
2019,06,02,03,42,15.40
2019,06,02,03,43,15.30
2019,06,02,03,44,15.30
2019,06,02,03,45,15.30
2019,06,02,03,46,15.30
2019,06,02,03,47,15.30
2019,06,02,03,48,15.20
2019,06,02,03,49,15.20
2019,06,02,03,50,15.20
2019,06,02,03,51,15.10
2019,06,02,03,52,15.10
2019,06,02,03,53,15.10
2019,06,02,03,54,15.10
2019,06,02,03,55,15.10
2019,06,02,03,56,15.10
2019,06,02,03,57,15.10
2019,06,02,03,58,15.10
2019,06,02,03,59,15.10
2019,06,02,04,00,15.00
2019,06,02,04,01,15.00
2019,06,02,04,02,15.00
2019,06,02,04,03,15.00
2019,06,02,04,04,15.00
2019,06,02,04,05,15.00
2019,06,02,04,06,14.90
2019,06,02,04,07,14.90
2019,06,02,04,08,14.90
2019,06,02,04,09,14.90
2019,06,02,04,10,14.90
2019,06,02,04,11,14.90
2019,06,02,04,12,14.90
2019,06,02,04,13,14.90
2019,06,02,04,14,14.90
2019,06,02,04,15,14.90
2019,06,02,04,16,14.90
2019,06,02,04,17,14.90
2019,06,02,04,18,14.90
2019,06,02,04,19,14.90
2019,06,02,04,20,14.90
2019,06,02,04,21,14.90
2019,06,02,04,22,15.00
2019,06,02,04,23,14.90
2019,06,02,04,24,14.90
2019,06,02,04,25,14.90
2019,06,02,04,26,14.90
2019,06,02,04,27,14.90
2019,06,02,04,28,14.90
2019,06,02,04,29,14.80
2019,06,02,04,30,14.80
2019,06,02,04,31,14.80
2019,06,02,04,32,14.80
2019,06,02,04,33,14.80
2019,06,02,04,34,14.80
2019,06,02,04,35,14.80
2019,06,02,04,36,14.80
2019,06,02,04,37,14.80
2019,06,02,04,38,14.70
2019,06,02,04,39,14.70
2019,06,02,04,40,14.70
2019,06,02,04,41,14.70
2019,06,02,04,42,14.70
2019,06,02,04,43,14.60
2019,06,02,04,44,14.60
2019,06,02,04,45,14.60
2019,06,02,04,46,14.50
2019,06,02,04,47,14.50
2019,06,02,04,48,14.50
2019,06,02,04,49,14.40
2019,06,02,04,50,14.40
2019,06,02,04,51,14.40
2019,06,02,04,52,14.40
2019,06,02,04,53,14.40
2019,06,02,04,54,14.40
2019,06,02,04,55,14.40
2019,06,02,04,56,14.40
2019,06,02,04,57,14.40
2019,06,02,04,58,14.40
2019,06,02,04,59,14.30
2019,06,02,05,00,14.30
2019,06,02,05,01,14.30
2019,06,02,05,02,14.30
2019,06,02,05,03,14.30
2019,06,02,05,04,14.20
2019,06,02,05,05,14.20
2019,06,02,05,06,14.20
2019,06,02,05,07,14.10
2019,06,02,05,08,14.10
2019,06,02,05,09,14.10
2019,06,02,05,10,14.10
2019,06,02,05,11,14.00
2019,06,02,05,12,14.00
2019,06,02,05,13,14.00
2019,06,02,05,14,14.00
2019,06,02,05,15,14.00
2019,06,02,05,16,13.90
2019,06,02,05,17,13.90
2019,06,02,05,18,13.90
2019,06,02,05,19,13.90
2019,06,02,05,20,13.90
2019,06,02,05,21,13.80
2019,06,02,05,22,13.80
2019,06,02,05,23,13.80
2019,06,02,05,24,13.80
2019,06,02,05,25,13.80
2019,06,02,05,26,13.80
2019,06,02,05,27,13.80
2019,06,02,05,28,13.80
2019,06,02,05,29,13.80
2019,06,02,05,30,13.80
2019,06,02,05,31,13.80
2019,06,02,05,32,13.80
2019,06,02,05,33,13.70
2019,06,02,05,34,13.70
2019,06,02,05,35,13.70
2019,06,02,05,36,13.70
2019,06,02,05,37,13.70
2019,06,02,05,38,13.70
2019,06,02,05,39,13.70
2019,06,02,05,40,13.70
2019,06,02,05,41,13.70
2019,06,02,05,42,13.70
2019,06,02,05,43,13.70
2019,06,02,05,44,13.70
2019,06,02,05,45,13.70
2019,06,02,05,46,13.70
2019,06,02,05,47,13.70
2019,06,02,05,48,13.70
2019,06,02,05,49,13.70
2019,06,02,05,50,13.70
2019,06,02,05,51,13.70
2019,06,02,05,52,13.60
2019,06,02,05,53,13.60
2019,06,02,05,54,13.60
2019,06,02,05,55,13.60
2019,06,02,05,56,13.50
2019,06,02,05,57,13.50
2019,06,02,05,58,13.50
2019,06,02,05,59,13.40
2019,06,02,06,00,13.40
2019,06,02,06,01,13.40
2019,06,02,06,02,13.40
2019,06,02,06,03,13.40
2019,06,02,06,04,13.40
2019,06,02,06,05,13.40
2019,06,02,06,06,13.40
2019,06,02,06,07,13.30
2019,06,02,06,08,13.30
2019,06,02,06,09,13.30
2019,06,02,06,10,13.30
2019,06,02,06,11,13.30
2019,06,02,06,12,13.30
2019,06,02,06,13,13.30
2019,06,02,06,14,13.30
2019,06,02,06,15,13.30
2019,06,02,06,16,13.30
2019,06,02,06,17,13.30
2019,06,02,06,18,13.30
2019,06,02,06,19,13.30
2019,06,02,06,20,13.40
2019,06,02,06,21,13.40
2019,06,02,06,22,13.40
2019,06,02,06,23,13.40
2019,06,02,06,24,13.40
2019,06,02,06,25,13.40
2019,06,02,06,26,13.40
2019,06,02,06,27,13.40
2019,06,02,06,28,13.40
2019,06,02,06,29,13.40
2019,06,02,06,30,13.40
2019,06,02,06,31,13.40
2019,06,02,06,32,13.40
2019,06,02,06,33,13.40
2019,06,02,06,34,13.40
2019,06,02,06,35,13.40
2019,06,02,06,36,13.40
2019,06,02,06,37,13.40
2019,06,02,06,38,13.40
2019,06,02,06,39,13.40
2019,06,02,06,40,13.40
2019,06,02,06,41,13.40
2019,06,02,06,42,13.40
2019,06,02,06,43,13.40
2019,06,02,06,44,13.40
2019,06,02,06,45,13.40
2019,06,02,06,46,13.40
2019,06,02,06,47,13.40
2019,06,02,06,48,13.40
2019,06,02,06,49,13.30
2019,06,02,06,50,13.30
2019,06,02,06,51,13.30
2019,06,02,06,52,13.30
2019,06,02,06,53,13.30
2019,06,02,06,54,13.30
2019,06,02,06,55,13.30
2019,06,02,06,56,13.40
2019,06,02,06,57,13.40
2019,06,02,06,58,13.40
2019,06,02,06,59,13.40
2019,06,02,07,00,13.40
2019,06,02,07,01,13.30
2019,06,02,07,02,13.30
2019,06,02,07,03,13.30
2019,06,02,07,04,13.30
2019,06,02,07,05,13.30
2019,06,02,07,06,13.30
2019,06,02,07,07,13.30
2019,06,02,07,08,13.40
2019,06,02,07,09,13.40
2019,06,02,07,10,13.40
2019,06,02,07,11,13.40
2019,06,02,07,12,13.40
2019,06,02,07,13,13.40
2019,06,02,07,14,13.40
2019,06,02,07,15,13.40
2019,06,02,07,16,13.40
2019,06,02,07,17,13.40
2019,06,02,07,18,13.40
2019,06,02,07,19,13.50
2019,06,02,07,20,13.50
2019,06,02,07,21,13.50
2019,06,02,07,22,13.50
2019,06,02,07,23,13.50
2019,06,02,07,24,13.50
2019,06,02,07,25,13.50
2019,06,02,07,26,13.60
2019,06,02,07,27,13.60
2019,06,02,07,28,13.60
2019,06,02,07,29,13.60
2019,06,02,07,30,13.60
2019,06,02,07,31,13.60
2019,06,02,07,32,13.60
2019,06,02,07,33,13.60
2019,06,02,07,34,13.60
2019,06,02,07,35,13.70
2019,06,02,07,36,13.70
2019,06,02,07,37,13.70
2019,06,02,07,38,13.70
2019,06,02,07,39,13.70
2019,06,02,07,40,13.70
2019,06,02,07,41,13.70
2019,06,02,07,42,13.70
2019,06,02,07,43,13.70
2019,06,02,07,44,13.70
2019,06,02,07,45,13.70
2019,06,02,07,46,13.70
2019,06,02,07,47,13.70
2019,06,02,07,48,13.70
2019,06,02,07,49,13.70
2019,06,02,07,50,13.70
2019,06,02,07,51,13.70
2019,06,02,07,52,13.70
2019,06,02,07,53,13.70
2019,06,02,07,54,13.70
2019,06,02,07,55,13.70
2019,06,02,07,56,13.70
2019,06,02,07,57,13.70
2019,06,02,07,58,13.70
2019,06,02,07,59,13.80
2019,06,02,08,00,13.80
2019,06,02,08,01,13.80
2019,06,02,08,02,13.80
2019,06,02,08,03,13.80
2019,06,02,08,04,13.80
2019,06,02,08,05,13.80
2019,06,02,08,06,13.80
2019,06,02,08,07,13.80
2019,06,02,08,08,13.80
2019,06,02,08,09,13.90
2019,06,02,08,10,13.90
2019,06,02,08,11,13.90
2019,06,02,08,12,13.90
2019,06,02,08,13,13.90
2019,06,02,08,14,13.90
2019,06,02,08,15,13.90
2019,06,02,08,16,13.90
2019,06,02,08,17,13.90
2019,06,02,08,18,13.90
2019,06,02,08,19,13.90
2019,06,02,08,20,13.90
2019,06,02,08,21,13.90
2019,06,02,08,22,13.90
2019,06,02,08,23,13.90
2019,06,02,08,24,13.90
2019,06,02,08,25,13.90
2019,06,02,08,26,13.90
2019,06,02,08,27,13.90
2019,06,02,08,28,13.90
2019,06,02,08,29,13.90
2019,06,02,08,30,13.90
2019,06,02,08,31,13.90
2019,06,02,08,32,14.00
2019,06,02,08,33,14.00
2019,06,02,08,34,14.00
2019,06,02,08,35,14.00
2019,06,02,08,36,14.00
2019,06,02,08,37,14.10
2019,06,02,08,38,14.10
2019,06,02,08,39,14.10
2019,06,02,08,40,14.10
2019,06,02,08,41,14.10
2019,06,02,08,42,14.10
2019,06,02,08,43,14.10
2019,06,02,08,44,14.10
2019,06,02,08,45,14.10
2019,06,02,08,46,14.10
2019,06,02,08,47,14.20
2019,06,02,08,48,14.20
2019,06,02,08,49,14.20
2019,06,02,08,50,14.20
2019,06,02,08,51,14.20
2019,06,02,08,52,14.20
2019,06,02,08,53,14.20
2019,06,02,08,54,14.20
2019,06,02,08,55,14.20
2019,06,02,08,56,14.20
2019,06,02,08,57,14.20
2019,06,02,08,58,14.20
2019,06,02,08,59,14.20
2019,06,02,09,00,14.20
2019,06,02,09,01,14.20
2019,06,02,09,02,14.20
2019,06,02,09,03,14.20
2019,06,02,09,04,14.30
2019,06,02,09,05,14.30
2019,06,02,09,06,14.30
2019,06,02,09,07,14.30
2019,06,02,09,08,14.30
2019,06,02,09,09,14.30
2019,06,02,09,10,14.30
2019,06,02,09,11,14.30
2019,06,02,09,12,14.30
2019,06,02,09,13,14.30
2019,06,02,09,14,14.30
2019,06,02,09,15,14.30
2019,06,02,09,16,14.30
2019,06,02,09,17,14.30
2019,06,02,09,18,14.40
2019,06,02,09,19,14.40
2019,06,02,09,20,14.40
2019,06,02,09,21,14.40
2019,06,02,09,22,14.40
2019,06,02,09,23,14.40
2019,06,02,09,24,14.40
2019,06,02,09,25,14.40
2019,06,02,09,26,14.40
2019,06,02,09,27,14.40
2019,06,02,09,28,14.40
2019,06,02,09,29,14.40
2019,06,02,09,30,14.40
2019,06,02,09,31,14.40
2019,06,02,09,32,14.40
2019,06,02,09,33,14.40
2019,06,02,09,34,14.40
2019,06,02,09,35,14.40
2019,06,02,09,36,14.40
2019,06,02,09,37,14.40
2019,06,02,09,38,14.40
2019,06,02,09,39,14.40
2019,06,02,09,40,14.40
2019,06,02,09,41,14.40
2019,06,02,09,42,14.40
2019,06,02,09,43,14.40
2019,06,02,09,44,14.40
2019,06,02,09,45,14.40
2019,06,02,09,46,14.40
2019,06,02,09,47,14.40
2019,06,02,09,48,14.40
2019,06,02,09,49,14.40
2019,06,02,09,50,14.40
2019,06,02,09,51,14.40
2019,06,02,09,52,14.40
2019,06,02,09,53,14.40
2019,06,02,09,54,14.40
2019,06,02,09,55,14.40
2019,06,02,09,56,14.40
2019,06,02,09,57,14.40
2019,06,02,09,58,14.40
2019,06,02,09,59,14.30
2019,06,02,10,00,14.40
2019,06,02,10,01,14.40
2019,06,02,10,02,14.40
2019,06,02,10,03,14.40
2019,06,02,10,04,14.40
2019,06,02,10,05,14.40
2019,06,02,10,06,14.40
2019,06,02,10,07,14.50
2019,06,02,10,08,14.50
2019,06,02,10,09,14.50
2019,06,02,10,10,14.50
2019,06,02,10,11,14.50
2019,06,02,10,12,14.60
2019,06,02,10,13,14.60
2019,06,02,10,14,14.60
2019,06,02,10,15,14.60
2019,06,02,10,16,14.60
2019,06,02,10,17,14.60
2019,06,02,10,18,14.60
2019,06,02,10,19,14.60
2019,06,02,10,20,14.60
2019,06,02,10,21,14.60
2019,06,02,10,22,14.60
2019,06,02,10,23,14.60
2019,06,02,10,24,14.60
2019,06,02,10,25,14.60
2019,06,02,10,26,14.60
2019,06,02,10,27,14.60
2019,06,02,10,28,14.70
2019,06,02,10,29,14.70
2019,06,02,10,30,14.60
2019,06,02,10,31,14.60
2019,06,02,10,32,14.60
2019,06,02,10,33,14.60
2019,06,02,10,34,14.60
2019,06,02,10,35,14.60
2019,06,02,10,36,14.60
2019,06,02,10,37,14.60
2019,06,02,10,38,14.60
2019,06,02,10,39,14.70
2019,06,02,10,40,14.70
2019,06,02,10,41,14.70
2019,06,02,10,42,14.80
2019,06,02,10,43,14.80
2019,06,02,10,44,14.80
2019,06,02,10,45,14.90
2019,06,02,10,46,14.90
2019,06,02,10,47,14.90
2019,06,02,10,48,15.00
2019,06,02,10,49,15.00
2019,06,02,10,50,15.10
2019,06,02,10,51,15.10
2019,06,02,10,52,15.10
2019,06,02,10,53,15.20
2019,06,02,10,54,15.20
2019,06,02,10,55,15.20
2019,06,02,10,56,15.30
2019,06,02,10,57,15.30
2019,06,02,10,58,15.30
2019,06,02,10,59,15.30
2019,06,02,11,00,15.40
2019,06,02,11,01,15.40
2019,06,02,11,02,15.40
2019,06,02,11,03,15.50
2019,06,02,11,04,15.50
2019,06,02,11,05,15.60
2019,06,02,11,06,15.60
2019,06,02,11,07,15.70
2019,06,02,11,08,15.70
2019,06,02,11,09,15.70
2019,06,02,11,10,15.70
2019,06,02,11,11,15.80
2019,06,02,11,12,15.80
2019,06,02,11,13,15.80
2019,06,02,11,14,15.80
2019,06,02,11,15,15.90
2019,06,02,11,16,15.90
2019,06,02,11,17,15.90
2019,06,02,11,18,15.90
2019,06,02,11,19,15.90
2019,06,02,11,20,15.90
2019,06,02,11,21,15.90
2019,06,02,11,22,16.00
2019,06,02,11,23,16.10
2019,06,02,11,24,16.10
2019,06,02,11,25,16.10
2019,06,02,11,26,16.20
2019,06,02,11,27,16.20
2019,06,02,11,28,16.20
2019,06,02,11,29,16.30
2019,06,02,11,30,16.30
2019,06,02,11,31,16.40
2019,06,02,11,32,16.40
2019,06,02,11,33,16.50
2019,06,02,11,34,16.50
2019,06,02,11,35,16.60
2019,06,02,11,36,16.70
2019,06,02,11,37,16.70
2019,06,02,11,38,16.70
2019,06,02,11,39,16.80
2019,06,02,11,40,16.80
2019,06,02,11,41,16.80
2019,06,02,11,42,16.90
2019,06,02,11,43,17.00
2019,06,02,11,44,17.00
2019,06,02,11,45,17.10
2019,06,02,11,46,17.10
2019,06,02,11,47,17.10
2019,06,02,11,48,17.20
2019,06,02,11,49,17.30
2019,06,02,11,50,17.30
2019,06,02,11,51,17.30
2019,06,02,11,52,17.40
2019,06,02,11,53,17.40
2019,06,02,11,54,17.50
2019,06,02,11,55,17.50
2019,06,02,11,56,17.60
2019,06,02,11,57,17.60
2019,06,02,11,58,17.60
2019,06,02,11,59,17.70
2019,06,02,12,00,17.70
2019,06,02,12,01,17.70
2019,06,02,12,02,17.80
2019,06,02,12,03,17.80
2019,06,02,12,04,17.80
2019,06,02,12,05,17.80
2019,06,02,12,06,17.90
2019,06,02,12,07,17.90
2019,06,02,12,08,17.90
2019,06,02,12,09,17.90
2019,06,02,12,10,18.00
2019,06,02,12,11,18.00
2019,06,02,12,12,18.00
2019,06,02,12,13,18.00
2019,06,02,12,14,18.10
2019,06,02,12,15,18.10
2019,06,02,12,16,18.10
2019,06,02,12,17,18.10
2019,06,02,12,18,18.20
2019,06,02,12,19,18.20
2019,06,02,12,20,18.20
2019,06,02,12,21,18.20
2019,06,02,12,22,18.20
2019,06,02,12,23,18.30
2019,06,02,12,24,18.30
2019,06,02,12,25,18.30
2019,06,02,12,26,18.30
2019,06,02,12,27,18.30
2019,06,02,12,28,18.40
2019,06,02,12,29,18.40
2019,06,02,12,30,18.40
2019,06,02,12,31,18.40
2019,06,02,12,32,18.40
2019,06,02,12,33,18.30
2019,06,02,12,34,18.30
2019,06,02,12,35,18.30
2019,06,02,12,36,18.30
2019,06,02,12,37,18.30
2019,06,02,12,38,18.40
2019,06,02,12,39,18.40
2019,06,02,12,40,18.40
2019,06,02,12,41,18.40
2019,06,02,12,42,18.50
2019,06,02,12,43,18.50
2019,06,02,12,44,18.60
2019,06,02,12,45,18.70
2019,06,02,12,46,18.70
2019,06,02,12,47,18.80
2019,06,02,12,48,18.80
2019,06,02,12,49,18.80
2019,06,02,12,50,18.90
2019,06,02,12,51,19.00
2019,06,02,12,52,19.00
2019,06,02,12,53,19.10
2019,06,02,12,54,19.10
2019,06,02,12,55,19.10
2019,06,02,12,56,19.20
2019,06,02,12,57,19.20
2019,06,02,12,58,19.30
2019,06,02,12,59,19.30
2019,06,02,13,00,19.40
2019,06,02,13,01,19.40
2019,06,02,13,02,19.40
2019,06,02,13,03,19.50
2019,06,02,13,04,19.50
2019,06,02,13,05,19.50
2019,06,02,13,06,19.60
2019,06,02,13,07,19.60
2019,06,02,13,08,19.60
2019,06,02,13,09,19.60
2019,06,02,13,10,19.60
2019,06,02,13,11,19.60
2019,06,02,13,12,19.70
2019,06,02,13,13,19.70
2019,06,02,13,14,19.80
2019,06,02,13,15,19.80
2019,06,02,13,16,19.90
2019,06,02,13,17,19.90
2019,06,02,13,18,19.90
2019,06,02,13,19,20.00
2019,06,02,13,20,20.00
2019,06,02,13,21,20.10
2019,06,02,13,22,20.10
2019,06,02,13,23,20.20
2019,06,02,13,24,20.20
2019,06,02,13,25,20.30
2019,06,02,13,26,20.30
2019,06,02,13,27,20.30
2019,06,02,13,28,20.30
2019,06,02,13,29,20.30
2019,06,02,13,30,20.30
2019,06,02,13,31,20.40
2019,06,02,13,32,20.40
2019,06,02,13,33,20.40
2019,06,02,13,34,20.40
2019,06,02,13,35,20.40
2019,06,02,13,36,20.50
2019,06,02,13,37,20.50
2019,06,02,13,38,20.40
2019,06,02,13,39,20.40
2019,06,02,13,40,20.30
2019,06,02,13,41,20.30
2019,06,02,13,42,20.30
2019,06,02,13,43,20.30
2019,06,02,13,44,20.30
2019,06,02,13,45,20.30
2019,06,02,13,46,20.30
2019,06,02,13,47,20.30
2019,06,02,13,48,20.20
2019,06,02,13,49,20.30
2019,06,02,13,50,20.30
2019,06,02,13,51,20.30
2019,06,02,13,52,20.30
2019,06,02,13,53,20.30
2019,06,02,13,54,20.30
2019,06,02,13,55,20.40
2019,06,02,13,56,20.40
2019,06,02,13,57,20.40
2019,06,02,13,58,20.30
2019,06,02,13,59,20.30
2019,06,02,14,00,20.30
2019,06,02,14,01,20.30
2019,06,02,14,02,20.30
2019,06,02,14,03,20.40
2019,06,02,14,04,20.40
2019,06,02,14,05,20.50
2019,06,02,14,06,20.50
2019,06,02,14,07,20.60
2019,06,02,14,08,20.60
2019,06,02,14,09,20.60
2019,06,02,14,10,20.70
2019,06,02,14,11,20.70
2019,06,02,14,12,20.70
2019,06,02,14,13,20.60
2019,06,02,14,14,20.60
2019,06,02,14,15,20.60
2019,06,02,14,16,20.50
2019,06,02,14,17,20.40
2019,06,02,14,18,20.40
2019,06,02,14,19,20.40
2019,06,02,14,20,20.40
2019,06,02,14,21,20.30
2019,06,02,14,22,20.30
2019,06,02,14,23,20.30
2019,06,02,14,24,20.30
2019,06,02,14,25,20.30
2019,06,02,14,26,20.30
2019,06,02,14,27,20.30
2019,06,02,14,28,20.30
2019,06,02,14,29,20.30
2019,06,02,14,30,20.20
2019,06,02,14,31,20.20
2019,06,02,14,32,20.20
2019,06,02,14,33,20.20
2019,06,02,14,34,20.30
2019,06,02,14,35,20.30
2019,06,02,14,36,20.30
2019,06,02,14,37,20.30
2019,06,02,14,38,20.40
2019,06,02,14,39,20.40
2019,06,02,14,40,20.40
2019,06,02,14,41,20.40
2019,06,02,14,42,20.40
2019,06,02,14,43,20.40
2019,06,02,14,44,20.40
2019,06,02,14,45,20.40
2019,06,02,14,46,20.40
2019,06,02,14,47,20.50
2019,06,02,14,48,20.60
2019,06,02,14,49,20.60
2019,06,02,14,50,20.50
2019,06,02,14,51,20.50
2019,06,02,14,52,20.50
2019,06,02,14,53,20.40
2019,06,02,14,54,20.40
2019,06,02,14,55,20.40
2019,06,02,14,56,20.40
2019,06,02,14,57,20.30
2019,06,02,14,58,20.30
2019,06,02,14,59,20.40
2019,06,02,15,00,20.30
2019,06,02,15,01,20.40
2019,06,02,15,02,20.40
2019,06,02,15,03,20.40
2019,06,02,15,04,20.40
2019,06,02,15,05,20.40
2019,06,02,15,06,20.40
2019,06,02,15,07,20.40
2019,06,02,15,08,20.40
2019,06,02,15,09,20.40
2019,06,02,15,10,20.40
2019,06,02,15,11,20.50
2019,06,02,15,12,20.60
2019,06,02,15,13,20.60
2019,06,02,15,14,20.70
2019,06,02,15,15,20.80
2019,06,02,15,16,20.80
2019,06,02,15,17,20.90
2019,06,02,15,18,21.00
2019,06,02,15,19,21.00
2019,06,02,15,20,21.10
2019,06,02,15,21,21.10
2019,06,02,15,22,21.10
2019,06,02,15,23,21.10
2019,06,02,15,24,21.20
2019,06,02,15,25,21.20
2019,06,02,15,26,21.20
2019,06,02,15,27,21.20
2019,06,02,15,28,21.20
2019,06,02,15,29,21.20
2019,06,02,15,30,21.30
2019,06,02,15,31,21.20
2019,06,02,15,32,21.20
2019,06,02,15,33,21.30
2019,06,02,15,34,21.30
2019,06,02,15,35,21.30
2019,06,02,15,36,21.30
2019,06,02,15,37,21.30
2019,06,02,15,38,21.30
2019,06,02,15,39,21.30
2019,06,02,15,40,21.30
2019,06,02,15,41,21.40
2019,06,02,15,42,21.40
2019,06,02,15,43,21.50
2019,06,02,15,44,21.50
2019,06,02,15,45,21.60
2019,06,02,15,46,21.60
2019,06,02,15,47,21.60
2019,06,02,15,48,21.60
2019,06,02,15,49,21.60
2019,06,02,15,50,21.60
2019,06,02,15,51,21.60
2019,06,02,15,52,21.60
2019,06,02,15,53,21.70
2019,06,02,15,54,21.70
2019,06,02,15,55,21.80
2019,06,02,15,56,21.80
2019,06,02,15,57,21.80
2019,06,02,15,58,21.90
2019,06,02,15,59,21.90
2019,06,02,16,00,21.90
2019,06,02,16,01,22.00
2019,06,02,16,02,22.00
2019,06,02,16,03,22.10
2019,06,02,16,04,22.20
2019,06,02,16,05,22.20
2019,06,02,16,06,22.30
2019,06,02,16,07,22.30
2019,06,02,16,08,22.30
2019,06,02,16,09,22.30
2019,06,02,16,10,22.30
2019,06,02,16,11,22.30
2019,06,02,16,12,22.30
2019,06,02,16,13,22.30
2019,06,02,16,14,22.20
2019,06,02,16,15,22.20
2019,06,02,16,16,22.20
2019,06,02,16,17,22.10
2019,06,02,16,18,22.10
2019,06,02,16,19,22.10
2019,06,02,16,20,22.00
2019,06,02,16,21,22.00
2019,06,02,16,22,21.90
2019,06,02,16,23,21.90
2019,06,02,16,24,21.90
2019,06,02,16,25,21.80
2019,06,02,16,26,21.80
2019,06,02,16,27,21.80
2019,06,02,16,28,21.80
2019,06,02,16,29,21.90
2019,06,02,16,30,21.90
2019,06,02,16,31,22.00
2019,06,02,16,32,22.10
2019,06,02,16,33,22.20
2019,06,02,16,34,22.30
2019,06,02,16,35,22.30
2019,06,02,16,36,22.40
2019,06,02,16,37,22.40
2019,06,02,16,38,22.50
2019,06,02,16,39,22.50
2019,06,02,16,40,22.50
2019,06,02,16,41,22.40
2019,06,02,16,42,22.40
2019,06,02,16,43,22.30
2019,06,02,16,44,22.30
2019,06,02,16,45,22.30
2019,06,02,16,46,22.20
2019,06,02,16,47,22.20
2019,06,02,16,48,22.20
2019,06,02,16,49,22.10
2019,06,02,16,50,22.10
2019,06,02,16,51,22.10
2019,06,02,16,52,22.10
2019,06,02,16,53,22.10
2019,06,02,16,54,22.10
2019,06,02,16,55,22.00
2019,06,02,16,56,22.00
2019,06,02,16,57,21.90
2019,06,02,16,58,21.90
2019,06,02,16,59,21.90
2019,06,02,17,00,21.80
2019,06,02,17,01,21.80
2019,06,02,17,02,21.70
2019,06,02,17,03,21.70
2019,06,02,17,04,21.70
2019,06,02,17,05,21.70
2019,06,02,17,06,21.60
2019,06,02,17,07,21.60
2019,06,02,17,08,21.60
2019,06,02,17,09,21.60
2019,06,02,17,10,21.60
2019,06,02,17,11,21.60
2019,06,02,17,12,21.60
2019,06,02,17,13,21.60
2019,06,02,17,14,21.60
2019,06,02,17,15,21.60
2019,06,02,17,16,21.50
2019,06,02,17,17,21.40
2019,06,02,17,18,21.40
2019,06,02,17,19,21.30